DELTA 1 DEB, 10759

Orbit data source: Space-Track

DELTA 1 DEB, 10759 is space debris in SSO originally from a launch on Thu, 29 Jul 1976 UTC launched from the Air Force Western Test Range (AFWTR). Debris objects in space refer to the collection of defunct objects orbiting the Earth. Examples of debris include non-operational satellites, rocket bodies, and fragments generated from explosions, collisions, or faulty payload assembly.

Loading next visibility...
Identifier
10759, 1976-077BG
Orbit
SSO
Country
Flag of USUS
Related business
Manufacturer
Unknown
Mission
Spacecraft
Bus & Motor
Unknown
Mass
Unknown
Launch date (UTC)
1976-07-29 (50 years ago)
Launch vehicle
Unknown
Launch site
Air Force Western Test Range (AFWTR)
Object type
Payload
Rocket body
Debris
Shape & HBR
Unknown shape, 0.2 m
Radar Cross Section
Medium (>0.1 m² and <1 m²)

Expand to show TLE details & history
Last TLE update: 14 hours ago

TLE from 14 hours ago
0 DELTA 1 DEB
1 10759U 76077BG  26171.23198002  .00000188  00000-0  16978-2 0  9991
2 10759 102.4832  72.8691 0080838  14.0891 138.7634 12.42095100251977
Epoch: 2026-06-20T05:34Z
TLE epoch observation values (Epoch: 2026-06-20T05:34:03.073Z)
Latitude
25.89947°
Longitude
-92.95229°
Altitude
1,548.649 km
Speed
7.073 km/s
True Right ascension
17h 16m 02s
True Declination
25° 46' 41"
Sunlit
Object was in full shadow at epoch
Visualization orbit readout
Latitude
Unknown
Longitude
Unknown
Altitude
Unknown
Speed
Unknown
Apparent Right ascension
Unknown
Apparent Declination
Unknown
Sunlit
N/A
Visualization observer readout
Local Sidereal Time
06:18:50
Azimuth
Unknown
Elevation
Unknown
Doppler factor
Unknown
Orbital elements
Apogee altitude
1,558.983 km
Perigee altitude
1,431.688 km
Semi-major axis
7,873.472 km
Eccentricity
0.00808
Inclination
102.4832°
RAAN
72.8691°
Arg. of periapsis
14.0891°
True anomaly
139.36939°
Mean anomaly
138.7634°
Eccentric anomaly
139.06686°
Mean motion
3.10666 °/min
Orbital period
115.88 mins
BSTAR
0.0016978
Loading maneuver chart data...
Computing Atmospheric mass density...
Loading historical data...
Loading historical data...
Loading historical data...
Loading historical data...
Loading historical data...
Loading historical data...
Loading historical data...

Documentation

Showing up to 5 results
|